Weather Roundup
Issued by NWS Chicago, IL

Home | Current Version | Previous Version | Text Only | Print | Product List | Glossary Off
Versions: 1 2 3 4 5 6 7 8 9 10 11 12 13 14 15 16 17 18 19 20 21 22 23 24 25 26 27 28 29 30 31 32 33 34 35 36 37 38 39 40 41 42 43 44 45 46 47 48 49 50

000
NZUS59 KLOT 280810
HRRLOT

CHICAGO AREA WEATHER ROUNDUP
NATIONAL WEATHER SERVICE CHICAGO/ROMEOVILLE IL
300 AM CDT THU AUG 28 2014

NOTE: "FAIR" INDICATES FEW OR NO CLOUDS BELOW 12,000 FEET WITH NO
SIGNIFICANT WEATHER AND/OR OBSTRUCTIONS TO VISIBILITY.

* THESE STATIONS ARE NOT UNDER NWS QUALITY CONTROL. THEY ALSO MAY NOT
  REPORT WEATHER SUCH AS PRECIPITATION OR FOG.

ILZ005-006-012>014-019>023-280900-
NORTHEAST ILLINOIS

CITY           SKY/WX    TMP DP  RH WIND       PRES   REMARKS
OHARE          PTCLDY    68  57  68 NE8       30.13F
MIDWAY         PTCLDY    71  59  65 E7        30.13S
AURORA         PTCLDY    62  59  90 NE5       30.13F
LANSING*       PTCLDY    64  60  90 E5        30.13S
JOLIET*        CLEAR     64  60  88 NE3       30.13F
WAUKEGAN       PTCLDY    59  57  93 NE3       30.14S
DUPAGE AIRPORT CLOUDY    64  61  90 N6        30.13F
WHEELING       CLOUDY    67  61  81 CALM      30.15F
KANKAKEE*      PTCLDY    62  60  93 NE5       30.13R
MORRIS*        MOCLDY    64  64 100 CALM      30.12S
LEWIS AIRPORT* CLEAR     63  61  93 NE6       30.12F
NORTHERLY IS     N/A     70  59  68 NE14        N/A
$$

WIZ051-052-058>065-066-070>072-280900-
SOUTHEAST WISCONSIN

CITY           SKY/WX    TMP DP  RH WIND       PRES   REMARKS
MILWAUKEE      CLEAR     62  56  80 CALM      30.15S
KENOSHA*       MOCLDY    58  57  97 CALM      30.16S
RACINE*        PTCLDY    61  56  83 CALM      30.17R
BURLINGTON     PTCLDY    56  56 100 CALM      30.15F
WAUKESHA       CLEAR     54  54 100 CALM      30.17S
WEST BEND      CLEAR     54  52  94 CALM      30.17R
$$

INZ001>003-010>013-019-020-280900-
NORTHWEST INDIANA

CITY           SKY/WX    TMP DP  RH WIND       PRES   REMARKS
GARY*          CLOUDY    67  61  80 E6        30.14R
MICHIGAN CITY* NOT AVBL
RENSSELAER*    NOT AVBL
VALPARAISO     MOCLDY    61  54  77 N3        30.13F
$$

LMZ740>746-280900-
SOUTHERN LAKE MICHIGAN

STATION/POSITION TIME  SKY/WX   TEMP WIND        PRES    VSBY
                                AIR  DIR/SP/G
                 (UTC)          (F)  (DEG/KT/KT) (MB)    (MI)
HARRISON CRIB    0800            69   60/ 14/ 16   N/A
BURNHAM HARBOR   0800            70   60/ 11/ 13   N/A
CALUMET HARBOR   0800            70   50/  9/ 12 1019.0S
BURNS HARBOR     NOT AVBL
MICHIGAN CITY    0800            65   50/  8/ 11   N/A
$$

ABBREVIATIONS USED IN REMARKS
   TC - TEMPERATURE IN CELSIUS
  WCI - WIND CHILL INDEX
   HX - HEAT INDEX
  VSB - VISIBILITY
$$


USA.gov is the U.S. government's official web portal to all federal, state and local government web resources and services.